User: anonymous   Login
Location: Unspecified
(0.0000°N, 0.0000°E)
Time: 06:52:46
(UTC+00:00)
Language:

USA 188 - Orbit

View from above orbital plane
View from above orbital plane
View from above satellite
View from above satellite

Ground track
Ground track

The orbit data is extracted from the following two-line orbital elements,

1 29241U 06024B   15143.04099329 0.00000000  00000-0  00000-0 0    03
2 29241   4.5545  62.9413 0008107  58.4826 301.6088  0.98871083    07
Epoch (UTC): 23 May 2015 00:59:01
Eccentricity: 0.0008107
inclination: 4.5545°
perigee height: 36149 km
apogee height: 36218 km
right ascension of ascending node: 62.9413°
argument of perigee: 58.4826°
revolutions per day: 0.98871083
mean anomaly at epoch: 301.6088°
orbit number at epoch: 0

The dashed part of the orbit path shows where the satellite is in the earth's shadow,  

DLR